TimeCDT,TemperatureF,Dew PointF,Humidity,Sea Level PressureIn,VisibilityMPH,Wind Direction,Wind SpeedMPH,Gust SpeedMPH,PrecipitationIn,Events,Conditions,WindDirDegrees,DateUTC
12:53 AM,73.0,69.1,87,30.01,10.0,SSE,3.5,-,N/A,,Clear,150,2013-06-16 05:53:00
1:53 AM,73.0,69.1,87,30.00,10.0,WNW,3.5,-,N/A,,Clear,290,2013-06-16 06:53:00
2:53 AM,75.0,66.9,76,29.98,10.0,NNE,6.9,-,N/A,,Clear,30,2013-06-16 07:53:00
3:53 AM,73.9,68.0,82,29.98,10.0,ENE,5.8,-,N/A,,Clear,60,2013-06-16 08:53:00
4:53 AM,71.1,68.0,90,29.98,10.0,Calm,Calm,-,N/A,,Clear,0,2013-06-16 09:53:00
5:53 AM,72.0,68.0,87,29.99,10.0,Calm,Calm,-,N/A,,Clear,0,2013-06-16 10:53:00
6:53 AM,73.0,66.9,81,30.01,10.0,ENE,3.5,-,N/A,,Clear,70,2013-06-16 11:53:00
7:53 AM,75.0,66.9,76,30.01,10.0,ESE,4.6,-,N/A,,Clear,110,2013-06-16 12:53:00
8:53 AM,75.9,68.0,76,30.01,10.0,SSE,5.8,-,N/A,,Clear,150,2013-06-16 13:53:00
9:53 AM,82.0,68.0,62,29.99,10.0,South,9.2,-,N/A,,Clear,180,2013-06-16 14:53:00
10:53 AM,82.9,66.9,58,29.99,10.0,SW,9.2,-,N/A,,Clear,220,2013-06-16 15:53:00
11:53 AM,86.0,66.0,51,29.98,10.0,SSW,12.7,-,N/A,,Clear,210,2013-06-16 16:53:00
12:53 PM,84.9,68.0,57,29.98,10.0,WSW,6.9,17.3,N/A,,Partly Cloudy,240,2013-06-16 17:53:00
1:53 PM,87.1,66.9,51,29.97,10.0,West,9.2,-,N/A,,Scattered Clouds,280,2013-06-16 18:53:00
2:53 PM,86.0,68.0,55,29.96,10.0,West,6.9,-,N/A,,Scattered Clouds,270,2013-06-16 19:53:00
3:53 PM,86.0,68.0,55,29.94,10.0,Variable,4.6,-,N/A,,Partly Cloudy,0,2013-06-16 20:53:00
4:53 PM,86.0,66.9,53,29.94,10.0,WSW,4.6,-,N/A,,Partly Cloudy,240,2013-06-16 21:53:00
5:53 PM,84.9,66.9,55,29.93,10.0,SW,5.8,-,N/A,,Clear,230,2013-06-16 22:53:00
6:53 PM,84.9,68.0,57,29.93,10.0,West,5.8,-,N/A,,Clear,260,2013-06-16 23:53:00
7:53 PM,81.0,72.0,74,29.93,10.0,Calm,Calm,-,N/A,,Clear,0,2013-06-17 00:53:00
8:53 PM,75.0,71.1,87,29.93,10.0,South,3.5,-,N/A,,Clear,180,2013-06-17 01:53:00
9:53 PM,72.0,69.1,91,29.94,10.0,Calm,Calm,-,N/A,,Clear,0,2013-06-17 02:53:00
10:53 PM,73.9,70.0,87,29.94,10.0,Calm,Calm,-,N/A,,Clear,0,2013-06-17 03:53:00
11:53 PM,72.0,69.1,91,29.93,10.0,Calm,Calm,-,N/A,,Clear,0,2013-06-17 04:53:00